546  
ASUS43 KIWX 202010  
RWRIWX  
 
KIWX WEATHER ROUNDUP  
NATIONAL WEATHER SERVICE NORTHERN INDIANA  
400 PM EDT THU JUL 20 2017  
 
NOTE: "FAIR" INDICATES FEW OR NO CLOUDS BELOW 12,000 FEET WITH NO  
SIGNIFICANT WEATHER AND/OR S TO VISIBILITY
.  
 
* THESE STATIONS ARE NOT UNDER NWS QUALITY CONTROL. THEY ALSO MAY NOT  
REPORT WEATHER SUCH AS PRECIPITATION OR FOG.
 
 
INZ001>027-202100-  
NORTHERN INDIANA  
 
CITY SKY/WX TMP DP RH WIND PRES REMARKS
 
GARY* MOSUNNY 90 73 58 W12G28 29.95S HX 98  
VALPARAISO MOSUNNY 90 76 63 W14 29.96S HX 101  
MICHIGAN CITY* SUNNY 86 73 66 NW6G17 29.97R  
LAPORTE* MOSUNNY 87 74 66 W8 29.97R HX 95  
KNOX* SUNNY 86 64 48 W8 29.95S  
SOUTH BEND MOSUNNY 87 74 64 W12 29.97S HX 95  
ELKHART* MOSUNNY 86 72 62 W12 29.98S  
MONTICELLO* CLOUDY 87 75 67 SW10G16 29.97S HX 97  
LOGANSPORT* MOSUNNY 86 75 70 SW12 29.98S HX 95  
ROCHESTER* MOSUNNY 90 73 58 W9G16 29.98S HX 98  
WARSAW* MOSUNNY 84 72 65 SW5 29.98S  
AUBURN* MOSUNNY 82 68 61 CALM 30.00S  
FORT WAYNE PTSUNNY 84 72 67 W8 29.99F  
HUNTINGTON* MOSUNNY 82 73 72 SW5 29.99S  
PERU/GRISSOM MOSUNNY 87 75 67 SW13 29.97S HX 96  
MARION* SUNNY 86 72 62 SW8 29.99F  
 

 
INZ028>050-202100-  
CENTRAL INDIANA  
 
CITY SKY/WX TMP DP RH WIND PRES REMARKS
 
LAFAYETTE CLOUDY 86 76 71 SW13 29.97F HX 96  
KOKOMO* MOSUNNY 88 74 63 W17G23 29.99S HX 96  
MUNCIE* MOSUNNY 88 70 55 W10 30.00F  
INDIANAPOLIS PTSUNNY 88 74 63 SW13 30.00F HX 96  
 

 
MIZ043>046-050>051-056>058-064>065-071>073-077>080-202100-  
SOUTHWEST LOWER MICHIGAN  
 
CITY SKY/WX TMP DP RH WIND PRES REMARKS
 
BATTLE CREEK CLOUDY 84 71 65 W10 29.98F  
BENTON HARBOR SUNNY 81 68 64 NW6 29.98S  
COLDWATER* CLOUDY 83 71 66 W8 29.99S  
HILLSDALE* PTSUNNY 81 68 65 W6 30.00S  
HOLLAND SUNNY 79 69 71 W8 29.98F  
GRAND RAPIDS PTSUNNY 83 70 64 W9 29.96F  
KALAMAZOO PTSUNNY 86 68 54 W14 29.97F  
STURGIS* PTSUNNY 83 72 68 W5 29.98F  
THREE RIVERS* PTSUNNY 85 71 61 W7 29.97F  
 

 
OHZ001>008-015>018-024>025-202100-  
NORTHWEST OHIO  
 
CITY SKY/WX TMP DP RH WIND PRES REMARKS
 
WAUSEON* FAIR 86 70 58 CALM 29.98F  
DEFIANCE CLOUDY N/A N/A N/A CALM 29.99F  
FINDLAY CLOUDY 86 70 58 W13 29.99S  
TOLEDO EXPRESS CLOUDY 84 72 67 NW6 29.99R  
TOLEDO METCALF CLOUDY 84 72 67 W10 30.00R  
LIMA CLOUDY 82 70 66 W16G23 30.02R  
 

 
AND FOR LAKE MICHIGAN COASTAL AND OPEN LAKE BUOY OBSERVATIONS  
 
STATION/POSITION TEMP WIND PRES VSBY WAVE
 
AIR SEA DIR/SP/G HT/PER  
(F) (DEG/KT/KT) (MB) (MI) (FT/S)  
CALUMET HARBOR 89 270/ 5/ 11 1013.5R  
MICHIGAN CITY 80 340/ 5/ 6 N/A  
BURNS HARBOR 81 280/ 10/ 12 1014.6S  
SAINT JOSEPH 78 320/ 2/ 3 1016.3  
SOUTH LAKE BUOY 71 71 110/ 6/ 6 1014.6F 2/ 5  
4 MI NW BRIDGMAN 75 74 10/ 6/ 8 1014.8 2/ 4  
MICHIGAN CITY 77 76 30/ 6/ 14 N/A 1/ 3  
 

 

 
 
 
CLICK HERE TO GO TO PREVIOUS BULLETINS.

The Nexlab IN Page
The Nexlab OH Page
The Nexlab MI Page Main Text Page